Location: Baia Mare
(47.6567°N, 23.5850°E)
Time: 07:01:00
(UTC+03:00)

ISS - Pass Details

Date: 13 March 2020
Orbit: 417 x 423 km, 51.6° (Epoch: 29 March)

Event Time Altitude Azimuth Distance (km) Brightness Sun altitude
Exits shadow 04:47:52 29° 165° (SSE) 797 -2.4 -19.8°
Drops below altitude 10° 04:49:54 10° 142° (SE) 1,503 -0.7 -19.5°
Sets 04:52:03 0° 135° (SE) 2,366 0.4 -19.2°
